Location: The Saddle
(36.8333°N, 80.3417°W)
Time: 07:54:51
(UTC-04:00)

Vanguard 2 Rocket - Pass Details

Date: 03 February 2023
Orbit: 555 x 3316 km, 32.9° (Epoch: 27 March)

Event Time Altitude Azimuth Distance (km) Brightness Sun altitude
Rises 16:14:26 0° 262° (W) 2,893 10.7 15.9°
Reaches altitude 10° 16:17:14 10° 239° (WSW) 2,181 11.7 15.4°
Maximum altitude 16:20:22 17° 200° (SSW) 2,040 9.8 14.9°
Drops below altitude 10° 16:24:19 10° 163° (SSE) 2,881 9.7 14.2°
Sets 16:28:56 0° 145° (SE) 4,380 10.4 13.5°
